This is the latest recevied weather packets stored in our database for station/object KP4FJC. If no packets are shown the sender has not sent any weather packets the latest 10 day(s).
| Time | Temp. | Humidity | Pressure | Rain* | Wind** | Luminosity | Snow |
|---|---|---|---|---|---|---|---|
| 1777806411 | 25° C | 89% | 1018.9 hPa | 0 mm | - | 90 W/m² | - |
| 1777806108 | 23.89° C | 91% | 1019 hPa | 0 mm | - | 82 W/m² | - |
| 1777805804 | 23.89° C | 91% | 1018.9 hPa | 0 mm | - | 73 W/m² | - |
| 1777805502 | 23.89° C | 91% | 1018.8 hPa | 0 mm | - | 65 W/m² | - |
| 1777805200 | 23.33° C | 92% | 1018.7 hPa | 0 mm | - | 57 W/m² | - |
| 1777804898 | 23.33° C | 92% | 1018.7 hPa | 0 mm | - | 51 W/m² | - |
| 1777804595 | 23.33° C | 94% | 1018.5 hPa | 0 mm | - | 42 W/m² | - |
| 1777804293 | 23.33° C | 95% | 1018.3 hPa | 0 mm | - | 32 W/m² | - |
| 1777803989 | 22.78° C | 95% | 1018.3 hPa | 0 mm | - | 27 W/m² | - |
| 1777803686 | 22.78° C | 95% | 1018.3 hPa | 0 mm | - | 24 W/m² | - |
| 1777803381 | 22.78° C | 96% | 1018.4 hPa | 0 mm | - | 16 W/m² | - |
| 1777803080 | 22.78° C | 96% | 1018.2 hPa | 0 mm | - | 12 W/m² | - |
| 1777802777 | 22.78° C | 96% | 1018.2 hPa | 0 mm | - | 8 W/m² | - |
| 1777802475 | 22.78° C | 96% | 1018.3 hPa | 0 mm | - | 6 W/m² | - |
| 1777802172 | 22.78° C | 96% | 1018.3 hPa | 0 mm | - | 3 W/m² | - |
| 1777801871 | 22.22° C | 96% | 1018.1 hPa | 0 mm | - | 1 W/m² | - |
| 1777801567 | 22.78° C | 96% | 1018.1 hPa | 0 mm | - | 0 W/m² | - |
| 1777801264 | 22.78° C | 96% | 1018.2 hPa | 0 mm | - | 0 W/m² | - |
| 1777800960 | 22.78° C | 96% | 1018.2 hPa | 0 mm | - | 0 W/m² | - |
| 1777800657 | 22.78° C | 96% | 1018 hPa | 0 mm | - | 0 W/m² | - |
| 1777800353 | 22.78° C | 96% | 1018.1 hPa | 0 mm | - | 0 W/m² | - |
| 1777800049 | 22.78° C | 96% | 1018.1 hPa | 0 mm | - | 0 W/m² | - |
| 1777799744 | 22.78° C | 95% | 1018.1 hPa | 0 mm | - | 0 W/m² | - |
| 1777799442 | 22.78° C | 95% | 1017.8 hPa | 0 mm | - | 0 W/m² | - |
| 1777799132 | 22.78° C | 95% | 1017.9 hPa | 0 mm | - | 0 W/m² | - |
* Rain latest hour (hover to see other rain measurements)
** Current wind speed in m/s (hover to see current wind gust speed)